Time,TemperatureF,DewpointF,PressureIn,WindDirection,WindDirectionDegrees,WindSpeedMPH,WindSpeedGustMPH,Humidity,HourlyPrecipIn,Conditions,Clouds,dailyrainin,SoftwareType,DateUTC
2013-02-19 00:08:00,-999.0,-99.9,29.65,North,-999,-999.0,-999.0,-999,-99.99,,,0.00,weatherlink.com 1.10,2013-02-19 08:08:00,
2013-02-19 00:23:00,-999.0,-99.9,29.64,North,-999,-999.0,-999.0,-999,-99.99,,,0.00,weatherlink.com 1.10,2013-02-19 08:23:00,
2013-02-19 00:38:00,-999.0,-99.9,29.65,North,-999,-999.0,-999.0,-999,-99.99,,,0.00,weatherlink.com 1.10,2013-02-19 08:38:00,
2013-02-19 00:53:00,-999.0,-99.9,29.64,North,-999,-999.0,-999.0,-999,-99.99,,,0.00,weatherlink.com 1.10,2013-02-19 08:53:00,
2013-02-19 01:08:00,-999.0,-99.9,29.64,North,-999,-999.0,-999.0,-999,-99.99,,,0.00,weatherlink.com 1.10,2013-02-19 09:08:00,
2013-02-19 01:23:00,-999.0,-99.9,29.63,North,-999,-999.0,-999.0,-999,-99.99,,,0.00,weatherlink.com 1.10,2013-02-19 09:23:00,
2013-02-19 01:38:00,-999.0,-99.9,29.63,North,-999,-999.0,-999.0,-999,-99.99,,,0.00,weatherlink.com 1.10,2013-02-19 09:38:00,
2013-02-19 01:53:00,-999.0,-99.9,29.63,North,-999,-999.0,-999.0,-999,-99.99,,,0.00,weatherlink.com 1.10,2013-02-19 09:53:00,
2013-02-19 02:08:00,-999.0,-99.9,29.63,North,-999,-999.0,-999.0,-999,-99.99,,,0.00,weatherlink.com 1.10,2013-02-19 10:08:00,
2013-02-19 02:23:00,-999.0,-99.9,29.64,North,-999,-999.0,-999.0,-999,-99.99,,,0.00,weatherlink.com 1.10,2013-02-19 10:23:00,
2013-02-19 02:38:00,-999.0,-99.9,29.63,North,-999,-999.0,-999.0,-999,-99.99,,,0.00,weatherlink.com 1.10,2013-02-19 10:38:00,
2013-02-19 02:52:00,-999.0,-99.9,29.63,North,-999,-999.0,-999.0,-999,-99.99,,,0.00,weatherlink.com 1.10,2013-02-19 10:52:00,
2013-02-19 03:07:00,-999.0,-99.9,29.63,North,-999,-999.0,-999.0,-999,-99.99,,,0.00,weatherlink.com 1.10,2013-02-19 11:07:00,
2013-02-19 03:22:00,-999.0,-99.9,29.63,North,-999,-999.0,-999.0,-999,-99.99,,,0.00,weatherlink.com 1.10,2013-02-19 11:22:00,
2013-02-19 03:37:00,-999.0,-99.9,29.63,North,-999,-999.0,-999.0,-999,-99.99,,,0.00,weatherlink.com 1.10,2013-02-19 11:37:00,
2013-02-19 03:52:00,-999.0,-99.9,29.64,North,-999,-999.0,-999.0,-999,-99.99,,,0.00,weatherlink.com 1.10,2013-02-19 11:52:00,
2013-02-19 04:07:00,-999.0,-99.9,29.64,North,-999,-999.0,-999.0,-999,-99.99,,,0.00,weatherlink.com 1.10,2013-02-19 12:07:00,
2013-02-19 04:22:00,-999.0,-99.9,29.64,North,-999,-999.0,-999.0,-999,-99.99,,,0.00,weatherlink.com 1.10,2013-02-19 12:22:00,
2013-02-19 04:37:00,-999.0,-99.9,29.64,North,-999,-999.0,-999.0,-999,-99.99,,,0.00,weatherlink.com 1.10,2013-02-19 12:37:00,
2013-02-19 04:52:00,-999.0,-99.9,29.64,North,-999,-999.0,-999.0,-999,-99.99,,,0.00,weatherlink.com 1.10,2013-02-19 12:52:00,
2013-02-19 05:07:00,-999.0,-99.9,29.64,North,-999,-999.0,-999.0,-999,-99.99,,,0.00,weatherlink.com 1.10,2013-02-19 13:07:00,
2013-02-19 05:22:00,-999.0,-99.9,29.64,North,-999,-999.0,-999.0,-999,-99.99,,,0.00,weatherlink.com 1.10,2013-02-19 13:22:00,
2013-02-19 05:37:00,-999.0,-99.9,29.65,North,-999,-999.0,-999.0,-999,-99.99,,,0.00,weatherlink.com 1.10,2013-02-19 13:37:00,
2013-02-19 05:52:00,-999.0,-99.9,29.65,North,-999,-999.0,-999.0,-999,-99.99,,,0.00,weatherlink.com 1.10,2013-02-19 13:52:00,
2013-02-19 06:07:00,-999.0,-99.9,29.65,North,-999,-999.0,-999.0,-999,-99.99,,,0.00,weatherlink.com 1.10,2013-02-19 14:07:00,
2013-02-19 06:22:00,-999.0,-99.9,29.65,North,-999,-999.0,-999.0,-999,-99.99,,,0.00,weatherlink.com 1.10,2013-02-19 14:22:00,
2013-02-19 06:37:00,-999.0,-99.9,29.66,North,-999,-999.0,-999.0,-999,-99.99,,,0.00,weatherlink.com 1.10,2013-02-19 14:37:00,
2013-02-19 06:52:00,-999.0,-99.9,29.65,North,-999,-999.0,-999.0,-999,-99.99,,,0.00,weatherlink.com 1.10,2013-02-19 14:52:00,
2013-02-19 07:07:00,-999.0,-99.9,29.66,North,-999,-999.0,-999.0,-999,-99.99,,,0.00,weatherlink.com 1.10,2013-02-19 15:07:00,
2013-02-19 07:22:00,-999.0,-99.9,29.66,North,-999,-999.0,-999.0,-999,-99.99,,,0.00,weatherlink.com 1.10,2013-02-19 15:22:00,
2013-02-19 07:37:00,-999.0,-99.9,29.66,North,-999,-999.0,-999.0,-999,-99.99,,,0.00,weatherlink.com 1.10,2013-02-19 15:37:00,
2013-02-19 07:52:00,-999.0,-99.9,29.67,North,-999,-999.0,-999.0,-999,-99.99,,,0.00,weatherlink.com 1.10,2013-02-19 15:52:00,
2013-02-19 08:07:00,-999.0,-99.9,29.67,North,-999,-999.0,-999.0,-999,-99.99,,,0.00,weatherlink.com 1.10,2013-02-19 16:07:00,
2013-02-19 08:22:00,-999.0,-99.9,29.68,North,-999,-999.0,-999.0,-999,-99.99,,,0.00,weatherlink.com 1.10,2013-02-19 16:22:00,
2013-02-19 08:37:00,-999.0,-99.9,29.68,North,-999,-999.0,-999.0,-999,-99.99,,,0.00,weatherlink.com 1.10,2013-02-19 16:37:00,
2013-02-19 08:52:00,-999.0,-99.9,29.69,North,-999,-999.0,-999.0,-999,-99.99,,,0.00,weatherlink.com 1.10,2013-02-19 16:52:00,
2013-02-19 09:07:00,-999.0,-99.9,29.70,North,-999,-999.0,-999.0,-999,-99.99,,,0.00,weatherlink.com 1.10,2013-02-19 17:07:00,
2013-02-19 09:22:00,-999.0,-99.9,29.70,North,-999,-999.0,-999.0,-999,-99.99,,,0.00,weatherlink.com 1.10,2013-02-19 17:22:00,
2013-02-19 09:37:00,-999.0,-99.9,29.70,North,-999,-999.0,-999.0,-999,-99.99,,,0.00,weatherlink.com 1.10,2013-02-19 17:37:00,
2013-02-19 09:52:00,-999.0,-99.9,29.70,North,-999,-999.0,-999.0,-999,-99.99,,,0.00,weatherlink.com 1.10,2013-02-19 17:52:00,
2013-02-19 10:07:00,-999.0,-99.9,29.70,North,-999,-999.0,-999.0,-999,-99.99,,,0.00,weatherlink.com 1.10,2013-02-19 18:07:00,
2013-02-19 10:23:00,-999.0,-99.9,29.70,North,-999,-999.0,-999.0,-999,-99.99,,,0.00,weatherlink.com 1.10,2013-02-19 18:23:00,
2013-02-19 10:38:00,-999.0,-99.9,29.70,North,-999,-999.0,-999.0,-999,-99.99,,,0.00,weatherlink.com 1.10,2013-02-19 18:38:00,
2013-02-19 10:53:00,46.1,40.0,29.71,NNE,25,2.0,-999.0,79,-99.99,,,0.00,weatherlink.com 1.10,2013-02-19 18:53:00,
2013-02-19 11:08:00,46.3,39.0,29.71,ESE,114,0.0,-999.0,77,-99.99,,,0.00,weatherlink.com 1.10,2013-02-19 19:08:00,
2013-02-19 11:23:00,46.3,40.0,29.71,ESE,116,1.0,-999.0,78,-99.99,,,0.00,weatherlink.com 1.10,2013-02-19 19:23:00,
2013-02-19 11:38:00,47.3,40.0,29.72,NNW,340,0.0,-999.0,77,-99.99,,,0.00,weatherlink.com 1.10,2013-02-19 19:38:00,
2013-02-19 11:53:00,48.1,41.0,29.72,North,360,1.0,-999.0,77,-99.99,,,0.00,weatherlink.com 1.10,2013-02-19 19:53:00,
2013-02-19 12:08:00,48.3,41.0,29.72,NE,52,5.0,-999.0,75,-99.99,,,0.00,weatherlink.com 1.10,2013-02-19 20:08:00,
2013-02-19 12:23:00,48.9,41.0,29.72,NW,326,2.0,-999.0,75,-99.99,,,0.00,weatherlink.com 1.10,2013-02-19 20:23:00,
2013-02-19 12:38:00,49.2,41.0,29.73,NE,40,0.0,-999.0,73,-99.99,,,0.00,weatherlink.com 1.10,2013-02-19 20:38:00,
2013-02-19 12:53:00,48.5,40.0,29.73,North,349,0.0,-999.0,72,-99.99,,,0.00,weatherlink.com 1.10,2013-02-19 20:53:00,
2013-02-19 13:08:00,49.2,40.0,29.73,NNW,340,0.0,-999.0,71,-99.99,,,0.00,weatherlink.com 1.10,2013-02-19 21:08:00,
2013-02-19 13:23:00,49.3,39.0,29.73,NNW,331,0.0,-999.0,69,-99.99,,,0.00,weatherlink.com 1.10,2013-02-19 21:23:00,
2013-02-19 13:38:00,49.7,40.0,29.73,NNE,19,0.0,-999.0,69,-99.99,,,0.00,weatherlink.com 1.10,2013-02-19 21:38:00,
2013-02-19 13:52:00,50.3,39.0,29.73,NNW,342,2.0,-999.0,65,-99.99,,,0.00,weatherlink.com 1.10,2013-02-19 21:52:00,
2013-02-19 14:22:00,48.6,39.0,29.74,North,349,2.0,-999.0,70,-99.99,,,0.00,weatherlink.com 1.10,2013-02-19 22:22:00,
2013-02-19 14:37:00,47.8,39.0,29.74,NNE,33,0.0,-999.0,71,-99.99,,,0.00,weatherlink.com 1.10,2013-02-19 22:37:00,
2013-02-19 14:52:00,47.4,39.0,29.74,NNE,26,2.0,-999.0,73,-99.99,,,0.00,weatherlink.com 1.10,2013-02-19 22:52:00,
2013-02-19 15:07:00,47.9,39.0,29.75,WNW,284,0.0,-999.0,72,-99.99,,,0.00,weatherlink.com 1.10,2013-02-19 23:07:00,
2013-02-19 15:22:00,48.3,36.0,29.75,NE,34,4.0,-999.0,62,-99.99,,,0.00,weatherlink.com 1.10,2013-02-19 23:22:00,
2013-02-19 15:37:00,49.5,35.0,29.76,North,360,1.0,-999.0,57,-99.99,,,0.00,weatherlink.com 1.10,2013-02-19 23:37:00,
2013-02-19 15:52:00,49.3,35.0,29.76,NNE,25,2.0,-999.0,59,-99.99,,,0.00,weatherlink.com 1.10,2013-02-19 23:52:00,
2013-02-19 16:08:00,49.1,36.0,29.76,NNE,18,3.0,-999.0,60,-99.99,,,0.00,weatherlink.com 1.10,2013-02-20 00:08:00,
2013-02-19 16:23:00,48.7,34.0,29.76,NE,34,2.0,-999.0,58,-99.99,,,0.00,weatherlink.com 1.10,2013-02-20 00:23:00,
2013-02-19 16:37:00,48.5,36.0,29.76,WNW,299,0.0,-999.0,62,-99.99,,,0.00,weatherlink.com 1.10,2013-02-20 00:37:00,
2013-02-19 16:52:00,48.6,37.0,29.77,NNE,31,2.0,-999.0,64,-99.99,,,0.00,weatherlink.com 1.10,2013-02-20 00:52:00,
2013-02-19 17:07:00,47.6,37.0,29.77,NNW,331,0.0,-999.0,66,-99.99,,,0.00,weatherlink.com 1.10,2013-02-20 01:07:00,
2013-02-19 17:22:00,45.9,36.0,29.77,NNW,331,0.0,-999.0,69,-99.99,,,0.00,weatherlink.com 1.10,2013-02-20 01:22:00,
2013-02-19 17:37:00,44.8,36.0,29.78,NNE,33,0.0,-999.0,72,-99.99,,,0.00,weatherlink.com 1.10,2013-02-20 01:37:00,
2013-02-19 17:52:00,-999.0,-99.9,29.78,North,-999,-999.0,-999.0,-999,-99.99,,,0.00,weatherlink.com 1.10,2013-02-20 01:52:00,
2013-02-19 18:07:00,-999.0,-99.9,29.78,North,-999,-999.0,-999.0,-999,-99.99,,,0.00,weatherlink.com 1.10,2013-02-20 02:07:00,
2013-02-19 18:22:00,-999.0,-99.9,29.79,North,-999,-999.0,-999.0,-999,-99.99,,,0.00,weatherlink.com 1.10,2013-02-20 02:22:00,
2013-02-19 18:37:00,-999.0,-99.9,29.79,North,-999,-999.0,-999.0,-999,-99.99,,,0.00,weatherlink.com 1.10,2013-02-20 02:37:00,
2013-02-19 18:52:00,-999.0,-99.9,29.80,North,-999,-999.0,-999.0,-999,-99.99,,,0.00,weatherlink.com 1.10,2013-02-20 02:52:00,
2013-02-19 19:08:00,-999.0,-99.9,29.80,North,-999,-999.0,-999.0,-999,-99.99,,,0.00,weatherlink.com 1.10,2013-02-20 03:08:00,
2013-02-19 19:23:00,-999.0,-99.9,29.81,North,-999,-999.0,-999.0,-999,-99.99,,,0.00,weatherlink.com 1.10,2013-02-20 03:23:00,
2013-02-19 19:37:00,-999.0,-99.9,29.82,North,-999,-999.0,-999.0,-999,-99.99,,,0.00,weatherlink.com 1.10,2013-02-20 03:37:00,
2013-02-19 19:52:00,-999.0,-99.9,29.81,North,-999,-999.0,-999.0,-999,-99.99,,,0.00,weatherlink.com 1.10,2013-02-20 03:52:00,
2013-02-19 20:07:00,-999.0,-99.9,29.83,North,-999,-999.0,-999.0,-999,-99.99,,,0.00,weatherlink.com 1.10,2013-02-20 04:07:00,
2013-02-19 20:23:00,-999.0,-99.9,29.83,North,-999,-999.0,-999.0,-999,-99.99,,,0.00,weatherlink.com 1.10,2013-02-20 04:23:00,
2013-02-19 20:37:00,-999.0,-99.9,29.84,North,-999,-999.0,-999.0,-999,-99.99,,,0.00,weatherlink.com 1.10,2013-02-20 04:37:00,
2013-02-19 20:52:00,-999.0,-99.9,29.84,North,-999,-999.0,-999.0,-999,-99.99,,,0.00,weatherlink.com 1.10,2013-02-20 04:52:00,
2013-02-19 21:08:00,-999.0,-99.9,29.85,North,-999,-999.0,-999.0,-999,-99.99,,,0.00,weatherlink.com 1.10,2013-02-20 05:08:00,
2013-02-19 21:22:00,-999.0,-99.9,29.85,North,-999,-999.0,-999.0,-999,-99.99,,,0.00,weatherlink.com 1.10,2013-02-20 05:22:00,
2013-02-19 21:38:00,-999.0,-99.9,29.86,North,-999,-999.0,-999.0,-999,-99.99,,,0.00,weatherlink.com 1.10,2013-02-20 05:38:00,
2013-02-19 21:53:00,-999.0,-99.9,29.86,North,-999,-999.0,-999.0,-999,-99.99,,,0.00,weatherlink.com 1.10,2013-02-20 05:53:00,
2013-02-19 22:07:00,-999.0,-99.9,29.86,North,-999,-999.0,-999.0,-999,-99.99,,,0.00,weatherlink.com 1.10,2013-02-20 06:07:00,
2013-02-19 22:23:00,-999.0,-99.9,29.87,North,-999,-999.0,-999.0,-999,-99.99,,,0.00,weatherlink.com 1.10,2013-02-20 06:23:00,
2013-02-19 22:38:00,-999.0,-99.9,29.88,North,-999,-999.0,-999.0,-999,-99.99,,,0.00,weatherlink.com 1.10,2013-02-20 06:38:00,
2013-02-19 22:53:00,-999.0,-99.9,29.88,North,-999,-999.0,-999.0,-999,-99.99,,,0.00,weatherlink.com 1.10,2013-02-20 06:53:00,
2013-02-19 23:08:00,-999.0,-99.9,29.89,North,-999,-999.0,-999.0,-999,-99.99,,,0.00,weatherlink.com 1.10,2013-02-20 07:08:00,
2013-02-19 23:22:00,-999.0,-99.9,29.89,North,-999,-999.0,-999.0,-999,-99.99,,,0.00,weatherlink.com 1.10,2013-02-20 07:22:00,
2013-02-19 23:37:00,-999.0,-99.9,29.90,North,-999,-999.0,-999.0,-999,-99.99,,,0.00,weatherlink.com 1.10,2013-02-20 07:37:00,
2013-02-19 23:52:00,-999.0,-99.9,29.90,North,-999,-999.0,-999.0,-999,-99.99,,,0.00,weatherlink.com 1.10,2013-02-20 07:52:00,